S55G-5 Weather Reports


time (UTC)temp
C
wind
direction
speed
KPH
gust
KPH
rain 1hr
cm
rain 24hr
cm
rain mn
cm
humidity
%
barometer
mb
20260506214503 15 54 3.2 6.4 0.00 2.13 2.13 89 1012.5
20260506213818 15 9 1.6 6.4 0.00 2.13 2.13 89 1012.5
20260506212703 15 10 1.6 3.2 0.00 2.13 2.13 90 1012.5
20260506212017 15 327 1.6 6.4 0.00 2.13 2.13 90 1012.3
20260506210903 15 38 3.2 6.4 0.00 2.13 2.13 87 1012.3
20260506210003 15 29 0.0 3.2 0.00 2.13 2.13 87 1012.3
20260506205403 15 33 1.6 6.4 0.00 2.13 2.13 88 1012.5
20260506204503 15 70 0.0 6.4 0.00 2.13 2.13 91 1012.3
20260506203603 15 25 1.6 3.2 0.00 2.13 2.13 93 1012.5
20260506202703 15 34 1.6 3.2 0.00 2.13 2.13 93 1012.4
20260506201803 15 352 0.0 6.4 0.00 2.16 2.13 93 1012.3
20260506200903 15 14 0.0 6.4 0.00 2.18 2.13 93 1012.3
20260506200003 15 292 1.6 3.2 0.00 2.18 2.13 92 1012.4
20260506195403 15 289 1.6 3.2 0.00 2.18 2.13 92 1012.4
20260506194718 15 280 0.0 3.2 0.00 2.18 2.13 91 1012.3
20260506193817 15 324 1.6 3.2 0.00 2.18 2.13 91 1011.9
20260506192703 15 313 3.2 6.4 0.00 2.18 2.13 91 1011.9
20260506191803 15 14 0.0 6.4 0.00 2.18 2.13 91 1011.6
20260506190903 15 17 3.2 6.4 0.00 2.18 2.13 91 1011.6
20260506190004 16 90 4.8 12.9 0.00 2.18 2.13 90 1011.4
20260506185403 16 133 4.8 14.5 0.00 2.18 2.13 88 1011.3
20260506184503 16 141 8.0 24.1 0.00 2.18 2.13 89 1011.1
20260506183817 15 158 3.2 20.9 0.00 2.18 2.13 93 1011.0
20260506182703 15 90 3.2 9.7 0.00 2.18 2.13 96 1011.1
20260506181803 15 80 3.2 6.4 0.00 2.18 2.13 96 1011.3
20260506180903 15 99 0.0 3.2 0.00 2.18 2.13 96 1011.2
20260506180004 15 32 1.6 3.2 0.20 2.18 2.13 95 1011.1
20260506175618 15 25 0.0 6.4 0.33 2.18 2.13 95 1011.1
20260506174503 15 37 3.2 6.4 0.33 2.18 2.13 94 1011.2
20260506173603 15 140 1.6 6.4 0.33 2.18 2.13 94 1011.1
20260506172703 16 240 1.6 6.4 0.33 2.18 2.13 94 1011.0
20260506172017 16 256 3.2 11.3 0.33 2.18 2.13 94 1010.9
20260506170903 16 235 3.2 24.1 0.33 2.18 2.13 92 1010.8
20260506170003 17 150 8.0 17.7 0.13 1.98 1.93 87 1010.1
20260506165403 17 134 6.4 17.7 0.00 1.85 1.80 83 1010.1
20260506164717 17 119 6.4 12.9 0.00 1.85 1.80 83 1009.8
20260506163818 18 152 3.2 14.5 0.00 1.85 1.80 82 1010.1
20260506162917 18 191 3.2 14.5 0.00 1.85 1.80 81 1010.4
20260506162017 18 196 3.2 9.7 0.00 1.85 1.80 81 1010.6
20260506161118 18 125 4.8 9.7 0.00 1.85 1.80 81 1010.6
20260506160003 18 127 6.4 12.9 0.00 1.88 1.80 80 1010.7
20260506155403 19 133 6.4 12.9 0.00 1.88 1.80 79 1010.7
20260506154503 19 132 0.0 17.7 0.00 1.88 1.80 80 1010.9
20260506153818 18 114 4.8 17.7 0.00 1.88 1.80 82 1010.6
20260506152703 19 113 6.4 11.3 0.00 1.88 1.80 81 1011.0
20260506151803 19 122 3.2 9.7 0.00 1.93 1.80 81 1011.2
20260506150903 19 141 1.6 6.4 0.00 1.93 1.80 79 1011.3
20260506150217 20 170 3.2 12.9 0.00 1.93 1.80 81 1011.3
20260506145403 18 108 6.4 12.9 0.00 1.96 1.80 82 1011.6
20260506144503 18 113 1.6 6.4 0.00 1.96 1.80 84 1011.5
20260506143603 17 77 0.0 6.4 0.00 1.96 1.80 86 1011.6
20260506142917 17 53 3.2 6.4 0.00 1.96 1.80 88 1011.5
20260506141803 16 49 1.6 3.2 0.00 1.98 1.80 88 1011.5
20260506141118 16 33 1.6 6.4 0.00 1.98 1.80 88 1011.5
20260506140003 16 347 3.2 3.2 0.00 2.01 1.80 88 1011.9
20260506135403 16 2 1.6 3.2 0.00 2.01 1.80 88 1011.8
20260506134503 16 356 1.6 6.4 0.00 2.03 1.80 89 1011.9
20260506133603 16 68 3.2 6.4 0.00 2.03 1.80 88 1011.7
20260506132703 16 44 3.2 9.7 0.00 2.03 1.80 88 1011.8
20260506131804 17 129 4.8 6.4 0.00 2.03 1.80 85 1012.2
20260506130903 17 177 3.2 12.9 0.00 2.03 1.80 85 1012.3
20260506130004 17 190 4.8 9.7 0.00 2.03 1.80 84 1012.2
20260506125403 17 195 3.2 9.7 0.00 2.03 1.80 85 1012.2
20260506124503 17 218 3.2 6.4 0.00 2.03 1.80 85 1012.3
20260506123603 16 181 1.6 14.5 0.00 2.06 1.80 87 1012.4
20260506122703 16 206 3.2 17.7 0.00 2.06 1.80 90 1012.4
20260506121803 16 190 8.0 17.7 0.00 2.06 1.80 88 1012.5
20260506120903 16 289 3.2 12.9 0.00 2.06 1.80 89 1012.5
20260506120004 16 208 4.8 12.9 0.00 2.06 1.80 88 1012.3
20260506115617 16 198 6.4 12.9 0.00 2.06 1.80 87 1012.1
20260506114503 16 173 3.2 12.9 0.00 2.06 1.80 86 1012.2
20260506113603 16 162 4.8 14.5 0.00 2.06 1.80 86 1012.4
20260506112703 16 196 3.2 20.9 0.00 2.11 1.80 87 1012.5
20260506111803 16 173 6.4 20.9 0.00 2.11 1.80 86 1012.6
20260506110903 16 171 3.2 14.5 0.00 2.11 1.80 87 1012.5
20260506110003 16 150 8.0 29.0 0.00 2.11 1.80 88 1012.3
20260506105403 16 130 6.4 29.0 0.00 2.11 1.80 87 1012.6
20260506104503 16 137 8.0 17.7 0.00 2.11 1.80 89 1012.5
20260506103603 16 134 6.4 14.5 0.03 2.11 1.80 90 1012.5
20260506102703 16 143 6.4 17.7 0.03 2.11 1.80 91 1012.8
20260506101803 15 133 6.4 20.9 0.15 2.11 1.80 92 1012.8
20260506100903 15 128 11.3 17.7 0.18 2.11 1.80 92 1012.7
20260506100003 15 151 4.8 17.7 0.23 2.11 1.80 93 1012.9
20260506095403 15 124 4.8 17.7 0.28 2.13 1.80 94 1013.0
20260506094718 14 147 3.2 14.5 0.30 2.13 1.80 95 1012.8
20260506093603 14 122 6.4 12.9 0.38 2.11 1.78 96 1013.1
20260506092917 14 112 1.6 14.5 0.48 2.11 1.78 96 1012.9
20260506091803 14 87 3.2 6.4 0.48 1.98 1.65 97 1012.8
20260506090903 14 95 3.2 9.7 0.51 1.96 1.63 97 1013.1
20260506090003 14 69 3.2 11.3 0.53 1.88 1.55 97 1012.8
20260506085403 14 72 3.2 9.7 0.56 1.85 1.52 97 1012.8
20260506084503 14 75 3.2 6.4 0.64 1.83 1.50 97 1013.0
20260506083603 14 84 3.2 3.2 0.53 1.70 1.37 97 1012.7
20260506082703 14 101 3.2 3.2 0.51 1.60 1.27 97 1012.9
20260506081803 14 98 3.2 6.4 0.51 1.50 1.17 97 1013.0
20260506080903 14 97 1.6 3.2 0.53 1.45 1.12 98 1012.9
20260506072703 14 45 1.6 6.4 0.61 1.09 0.76 97 1012.6
20260506071803 14 11 3.2 6.4 0.53 0.99 0.66 97 1012.6
20260506070903 14 28 3.2 6.4 0.46 0.89 0.56 97 1012.5
20260506070218 14 27 3.2 3.2 0.38 0.84 0.51 97 1012.6
20260506061803 14 14 0.0 3.2 0.13 0.46 0.13 97 1012.6
20260506060903 14 42 0.0 3.2 0.13 0.46 0.13 97 1012.5
20260506050903 13 67 0.0 3.2 0.00 0.33 0.00 97 1012.3
20260506044503 13 51 1.6 3.2 0.00 0.33 0.00 97 1012.1
20260506043603 13 22 0.0 3.2 0.00 0.33 0.00 97 1012.4
20260506042703 13 122 0.0 3.2 0.00 0.33 0.00 97 1012.4
20260506042018 13 117 0.0 3.2 0.00 0.33 0.00 96 1012.6
20260506040903 13 22 1.6 3.2 0.00 0.33 0.00 96 1012.4
20260506040003 13 18 3.2 3.2 0.00 0.33 0.00 96 1012.5
20260506035403 13 70 0.0 3.2 0.00 0.33 0.00 96 1012.5
20260506034503 13 106 1.6 3.2 0.00 0.33 0.00 96 1012.6
20260506033603 13 360 0.0 3.2 0.00 0.33 0.00 95 1012.6
20260506032703 13 17 3.2 3.2 0.00 0.33 0.00 95 1012.7
20260506031803 13 62 1.6 3.2 0.00 0.33 0.00 95 1012.8
20260506030903 13 64 3.2 3.2 0.00 0.33 0.00 95 1012.8
20260506030003 13 44 1.6 3.2 0.00 0.33 0.00 94 1013.0
20260506025403 13 45 0.0 3.2 0.00 0.33 0.00 94 1013.1
20260506024503 13 360 0.0 3.2 0.00 0.33 0.00 94 1013.1
20260506023603 13 28 0.0 3.2 0.00 0.33 0.00 94 1013.1
20260506022703 13 135 0.0 3.2 0.00 0.33 0.00 94 1013.3
20260506021803 13 360 0.0 3.2 0.00 0.33 0.00 94 1013.2
20260506020903 13 4 0.0 3.2 0.00 0.33 0.00 94 1013.3
20260506020003 13 306 0.0 3.2 0.00 0.33 0.00 94 1013.4
20260506015403 13 331 1.6 3.2 0.00 0.33 0.00 93 1013.4
20260506014503 14 18 1.6 3.2 0.00 0.33 0.00 93 1013.4
20260506013603 14 355 1.6 3.2 0.00 0.33 0.00 93 1013.3
20260506012703 14 351 3.2 6.4 0.00 0.33 0.00 93 1013.4
20260506011803 14 26 0.0 9.7 0.00 0.33 0.00 94 1013.3
20260506010903 13 344 3.2 6.4 0.00 0.33 0.00 95 1013.0
20260506010003 13 2 0.0 3.2 0.00 0.33 0.00 95 1013.4
20260506005617 13 10 0.0 3.2 0.00 0.33 0.00 95 1013.2
20260506004504 13 339 1.6 3.2 0.00 0.33 0.00 95 1013.2
20260506003603 13 326 1.6 3.2 0.00 0.33 0.00 94 1013.0
20260506002703 13 72 1.6 3.2 0.00 0.33 0.00 94 1013.0
20260506001803 13 19 0.0 3.2 0.00 0.33 0.00 93 1013.2
20260506000903 13 18 1.6 3.2 0.00 0.33 0.00 93 1013.2
20260506000219 13 28 3.2 6.4 0.00 0.33 0.00 93 1013.3
20260505235403 13 31 3.2 6.4 0.00 0.33 0.00 93 1013.3
20260505234503 13 64 0.0 6.4 0.00 0.33 0.00 92 1013.5
20260505233603 13 73 1.6 6.4 0.00 0.33 0.00 93 1013.6
20260505232703 13 97 3.2 3.2 0.00 0.33 0.00 95 1013.7
20260505231803 13 88 0.0 3.2 0.00 0.33 0.00 95 1013.8
20260505230903 13 273 0.0 3.2 0.00 0.33 0.00 96 1013.8
20260505230003 13 292 1.6 3.2 0.00 0.33 0.00 97 1014.0
20260505225403 13 7 1.6 6.4 0.00 0.33 0.00 97 1013.9
20260505224503 13 40 3.2 6.4 0.00 0.33 0.00 97 1013.8
20260505223603 13 67 3.2 3.2 0.00 0.33 0.00 97 1014.0
20260505222703 13 95 1.6 6.4 0.00 0.33 0.00 97 1014.0
20260505222018 13 76 1.6 6.4 0.00 0.33 0.00 97 1014.2
20260505220903 13 45 0.0 3.2 0.00 0.33 0.00 97 1014.3
20260505220004 13 15 1.6 3.2 0.00 0.33 0.00 97 1014.3
20260505215403 13 354 1.6 3.2 0.00 0.33 0.33 97 1014.3